{"data":{"norad_id":67512,"intl_designator":"2026-012V","name":"STARLINK-36538","alt_names":[],"object_type":"PAYLOAD","status":"ACTIVE","operator":null,"country":"US","launch_date":"2026-01-18","launch_site_code":"AFETR","launch_vehicle":null,"mission":null,"orbit_class":"UNKNOWN","rcs_meters":null,"size_class":null,"mass_kg":null,"dimensions":null,"purposes":["comms"],"wikipedia_slug":null,"has_3d_model":false,"image_url":null,"decayed_at":null,"tle_current":{"epoch":"2026-05-24T23:02:03.887808Z","epoch_age_seconds":81796,"freshness":"FRESH","line1":"1 67512U 26012V   26144.95976722  .00019610  00000+0  72006-3 0  9990","line2":"2 67512  43.0020 243.9011 0001245 275.4064  84.6645 15.27588634 19420","mean_motion":15.27588634,"eccentricity":0.0001245,"inclination_deg":43.002,"raan_deg":243.9011,"arg_perigee_deg":275.4064,"mean_anomaly_deg":84.6645,"bstar":0.00072006,"rev_number":1942,"period_min":94.266215913727,"perigee_km":482.16902840912,"apogee_km":483.87745730959,"semimajor_km":6861.1602428594,"source":"CELESTRAK","updated_at":"2026-05-25T13:38:21.600356Z"}}}